EUTELSAT 33A

Last updated on Feb. 8, 2018, 12:19 a.m. UTC

1 27948U 03043A   18038.19563211  .00000013  00000-0  00000+0 0  9991
2 27948   2.8275  77.2228 0005173 183.4397 204.7236  0.98882848 52720
UTC
Height (km)
Latitude
Longitude
Inclination
Orbital Period
UTC large
Height (km)
Speed (km/s)
/
Latitude / Longitude
Inclination (degrees)
Orbital Period (minutes)
Azimuth
Elevation
Range (km)
Doppler Factor
iOS Compass Heading
iOS Angle

Next 30 passes for location: Hong Kong

Rise time Rise Azimuth (degrees) Set time Set Azimuth (degrees) Duration Max altitude (degrees)

No matching passes for this satellites